{"data":{"norad_id":60283,"epoch":"2026-09-21T14:54:00.725472Z","epoch_age_seconds":85374,"freshness":"FRESH","line1":"1 60283U 24132F   26264.62084173 -.00000734  00000+0 -11886-4 0  9995","line2":"2 60283  53.1582 221.2665 0001709  85.2634 274.8563 15.31696569121576","mean_motion":15.31696569,"eccentricity":0.0001709,"inclination_deg":53.1582,"raan_deg":221.2665,"arg_perigee_deg":85.2634,"mean_anomaly_deg":274.8563,"bstar":-1.1886e-5,"rev_number":12157,"period_min":94.013398550611,"perigee_km":469.57974805082,"apogee_km":471.92069770359,"semimajor_km":6848.8872228772,"source":"CELESTRAK","updated_at":"2026-09-22T09:00:49.192105Z"}}